Miscellaneous Local Product
Issued by NWS Hastings, NE

Home | Current Version | Previous Version | Graphics & Text | Print | Product List | Glossary On
Versions: 1 2 3 4 5 6 7 8 9 10 11 12 13 14 15 16 17 18 19 20 21 22 23 24 25 26 27 28 29 30 31 32 33 34 35 36 37 38 39 40 41 42 43 44 45 46 47 48 49 50
000
AXUS43 KGID 230502
MISGRI

GID CWA HOURLY WEATHER ROUNDUP
NATIONAL WEATHER SERVICE HASTINGS NE
1100 PM CST WED FEB 22 2017

NOTE: "FAIR" INDICATES FEW OR NO CLOUDS BELOW 12,000 FEET WITH NO
SIGNIFICANT WEATHER AND/OR OBSTRUCTIONS TO VISIBILITY.

...SOUTH CENTRAL NEBRASKA...

CITY           SKY/WX    TMP DP  RH WIND       PRES   REMARKS
GRAND ISLAND   CLEAR     40  32  73 NE9       29.78F WCI  34
HASTINGS       CLEAR     45  31  58 NE12      29.77S
KEARNEY        CLEAR     39  27  60 NE8       29.77S WCI  34
ORD            PTCLDY    43  34  70 N14       29.80S
YORK           CLEAR     41  32  70 NE12      29.78F
AURORA         CLEAR     39  32  75 NE9       29.77F WCI  33
LEXINGTON      CLEAR     42  30  63 E8        29.76S
HOLDREGE       CLEAR     39  28  64 NE10      29.75S WCI  33
HEBRON         CLEAR     46  33  59 NE6       29.76R

...NEBRASKA PANHANDLE...

CITY           SKY/WX    TMP DP  RH WIND       PRES   REMARKS
CHADRON        CLOUDY    35  28  75 NE15      29.88F WCI  25
ALLIANCE       CLOUDY    37  30  75 NE15      29.80F WCI  28
SCOTTSBLUFF    LGT RAIN  39  32  76 NE17      29.81R WCI  30
SIDNEY         CLOUDY    41  19  41 N14       29.77F

...WESTERN AND NORTH CENTRAL NEBRASKA...

CITY           SKY/WX    TMP DP  RH WIND       PRES   REMARKS
VALENTINE      CLOUDY    35  29  78 N10       29.89F WCI  27
AINSWORTH      CLOUDY    35  33  92 N14G20    29.88F WCI  26
ONEILL         CLOUDY    41  39  93 N13G20    29.87S
BROKEN BOW     CLEAR     43  32  65 N15G24    29.78F
IMPERIAL       CLEAR     39  21  48 NE9       29.72F WCI  33
NORTH PLATTE   CLEAR     42  29  59 NE20G28   29.76F
MCCOOK         CLEAR     40  24  53 NE10      29.72F WCI  33

...EASTERN NEBRASKA...

CITY           SKY/WX    TMP DP  RH WIND       PRES   REMARKS
NORFOLK        CLOUDY    43  37  79 N13       29.81R
SO SIOUX CITY  PTCLDY    45  37  73 N15       29.82R
TEKAMAH        CLEAR     43  38  82 N7        29.81R
COLUMBUS       CLEAR     39  34  81 N6        29.81F WCI  35
ALBION         PTCLDY    46  36  68 N10G16    29.81R
OMAHA EPPLEY   CLEAR     43  36  76 N7        29.80R
OFFUTT AFB     CLEAR     51  38  61 N9        29.79R
MILLARD        CLEAR     53  42  66 N3        29.80R
LINCOLN        CLEAR     43  35  73 N10       29.78F
NEBRASKA CITY  CLEAR     50  33  51 NE10      29.78R
BEATRICE       CLEAR     50  36  57 NE12G17   29.75F
FALLS CITY     CLEAR     54  37  52 N12G18    29.74R

...NORTHERN KANSAS...

CITY           SKY/WX    TMP DP  RH WIND       PRES   REMARKS
GOODLAND       CLOUDY    38  22  52 E10       29.68F WCI  31
HILL CITY      CLEAR     41  25  53 NE8       29.71S
NORTON         CLEAR     45  23  42 NE12      29.72S
PHILLIPSBURG   CLEAR     50  28  43 NE12G18   29.72F
SMITH CENTER   CLEAR     48  30  49 NE15      29.72F
HAYS             N/A     49  28  44 NE14      29.67F
RUSSELL        CLOUDY    49  30  48 NE12      29.67F
CONCORDIA      PTCLDY    52  33  48 E8        29.73R
SALINA         CLOUDY    58  33  39 NE8       29.69S
TOPEKA         CLEAR     53  39  59 NE6       29.71R



USA.gov is the U.S. government's official web portal to all federal, state and local government web resources and services.